Regional Weather Roundup
Issued by NWS State College, PA

Home | Current Version | Previous Version | Text Only | Print | Product List | Glossary On
Versions: 1 2 3 4 5 6 7 8 9 10 11 12 13 14 15 16 17 18 19 20 21 22 23 24 25 26 27 28 29 30 31 32 33 34 35 36 37 38 39 40 41 42 43 44 45 46 47 48 49 50
000
ASUS41 KCTP 300503
RWRCTP

REGIONAL WEATHER ROUNDUP
NATIONAL WEATHER SERVICE STATE COLLEGE PA
100 AM EDT THU JUL 30 2015

Note: "fair" indicates few or no clouds below 12,000 feet with no
significant weather and/or obstructions to visibility.

* = STATION THAT DOES NOT REPORT PRECIPITATION /E.G. RAIN...SNOW...ETC/
    THUNDER OR FOG.

PAZ002>004-007>009-013>016-020>023-029>032-300600-
WESTERN PENNSYLVANIA

CITY           SKY/WX    TMP DP  RH WIND       PRES   REMARKS
ERIE           CLOUDY    78  69  73 SW5       29.89S
MEADVILLE      LGT RAIN  75  68  78 SW3       29.94S
FRANKLIN*      CLOUDY    75  66  73 SW5       29.96S
NEW CASTLE     FAIR      76  72  87 CALM      29.95R
BEAVER COUNTY  NOT AVBL
BUTLER*        CLOUDY    73  70  88 CALM      29.96S
PITTSBURGH INT CLOUDY    77  70  79 S3        29.95R
PITTSBURGH     MOCLDY    77  67  71 S5        29.95R
INDIANA*       MOCLDY    73  73 100 CALM      29.99R FOG
LATROBE        NOT AVBL
WASHINGTON CO* NOT AVBL
$$

PAZ004>006-010>012-017>019-024>028-033>037-041-042-045-046-049>053-300600-
CENTRAL PENNSYLVANIA

CITY           SKY/WX    TMP DP  RH WIND       PRES   REMARKS
BRADFORD       MOCLDY    73  68  84 VRB3      29.97F
DUBOIS         MOCLDY    74  69  85 SW5       29.96S
CLEARFIELD     MOCLDY    71  68  90 CALM      29.96F
JOHNSTOWN      MOCLDY    73  66  78 SW7       30.02R
ALTOONA        PTCLDY    73  69  87 SW3       29.98S
STATE COLLEGE  MOCLDY    75  71  86 SW5       29.95F
WILLIAMSPORT   PTCLDY    73  69  87 N3        29.91S
SELINSGROVE    CLEAR     74  72  93 CALM      29.93S
FT INDIANTOWN  CLOUDY    75  74  95 CALM      29.94F
CAPITAL CITY   CLEAR     80  72  76 CALM      29.94S
HARRISBURG     MOCLDY    79  73  82 VRB6      29.93S
YORK           PTCLDY    77  72  84 S6        29.95S
$$

PAZ038>040-043-044-047-048-054-055-060>062-067>071-300600-
EASTERN PENNSYLVANIA

CITY           SKY/WX    TMP DP  RH WIND       PRES   REMARKS
SCRANTON       MOCLDY    77  70  79 S3        29.95S
MOUNT POCONO     N/A    N/A N/A N/A MISG      30.01F
ALLENTOWN      CLEAR     76  71  85 SW5       29.95S
QUAKERTOWN*    CLEAR     75  72  88 CALM      29.97S
READING        MOCLDY    79  73  82 S6        29.94S
LANCASTER      CLEAR     78  74  87 S7        29.95S
COATESVILLE    CLEAR     75  75 100 CALM      29.98S
POTTSTOWN      PTCLDY    76  74  93 S3        29.97S
BLUE BELL      CLEAR     79  73  83 SW3       29.95S
DOYLESTOWN     CLEAR     76  72  87 S3        29.96R
WILLOW GROVE   NOT AVBL
NORTH PHILA    CLEAR     81  70  69 SW7       29.96S
PHILADELPHIA   PTCLDY    81  73  76 S7        29.95S
$$


USA.gov is the U.S. government's official web portal to all federal, state and local government web resources and services.